星链-3715 (STARLINK-3715 )

导读

STARLINK-3715是美国SpaceX公司星链星座的V1.0版本卫星,于2022年3月19日发射。它运行在近地轨道,近地点约355公里,远地点约357公里,轨道倾角43度。作为星链互联网项目的一员,它搭载Ku/Ka波段相控阵通信载荷,配备氪霍尔推进器,具备自主避撞能力,旨在为全球提供高速低延迟宽带互联网服务,设计寿命约5年,退役后将主动离轨在大气层烧毁。

基本信息
目录编号:
52127
目录名称:
STARLINK-3715
国际标识:
2022-029AR
轨道中心:
EARTH
卫星名称:
星链-3715
卫星全名:
星链-3715 (STARLINK-3715 )
卫星状态:
在轨 (已飞行1630 天)
发射日期:
2022-03-19 UTC
国别 :
美国 (US)
星等 :
--
轨道信息
数据来源 国际轨道数据
星历时间: 2026-09-04T04:01:10+0800
7小时前
查看轨道信息
半长轴: 6837.854km
偏心率: 0.0001133
轨道倾角: 53.161°
近地点辐角 65.680°
升交点赤经 345.635°
平近点角 294.432°
近地点: 458.942km
远地点: 460.492km
周期: 93.786分钟
每日圈数: 15.354056
详细信息
固有亮度:
5
最大亮度:
2.5
卫星平台:
Starlink v1.5
覆盖范围:
全球
运营商:
太空探索技术公司
运营商所在国:
美国
制造商(研发单位):
太空探索技术公司
制造商所在国:
美国
使用方式:
暂无
卫星简介
星链(Starlink)计划是由太空探索技术公司(SpaceX)提出的一个巨型低轨卫星互联网星座项目,计划在2019年至2024年间在太空搭建由约1.2万颗卫星组成的“星链”网络,其中1584颗将部署在地球上空550千米处的近地轨道,并从2020年开始工作。该卫星仍在工作。
2D轨道图
3D轨道图
轨道高度分析图
轨道倾角分析图
轨道综合分析图
查看轨道综合分析图